Flag for Taiwan Weather past 2 weeks in Taipei, Taiwan

Now
93 °F

Broken clouds.


Feels Like: 101 °F
Forecast: 84 / 98 °F
Wind: 9 mph from Northwest

Location: Sungshan / Taipei

Current Time: Jun 30, 2015 at 6:43:13 PM

Latest Report: Jun 30, 2015 at 6:00 PM


Visibility: N/A

Pressure: 29.59 "Hg

Humidity: 49%

Dew point: 72 °F

Location of TaipeiLocation

Historic Weather in Taipei — Graph

°F

Taipei temperature yesterday

Maximum temperature yesterday: 95 °F (at 12:30 PM)
Minimum temperature yesterday: 84 °F (at 4:00 AM)
Average temperature yesterday: 90 °F

Past Weeks' High & Low Weather Summary

 TemperatureHumidityPressure
High99 °F (Jun 26, 12:30 PM)94% (Jun 21, 4:55 PM)29.83 "Hg (Jun 21, 4:55 PM)
Low79 °F (Jun 21, 5:30 PM)36% (Jun 18, 12:30 PM)29.56 "Hg (Jun 30, 5:00 PM)
Average88 °F66%29.73 "Hg
* Reported Jun 15 5:00 PM — Jun 30 5:30 PM, Taipei, Weather by CustomWeather, © 2015

Note: Actual official high and low records may vary slightly from our data, if they occured in-between our weather recording intervals... More about our weather records

Advertising

Taipei weather history for previous 24 hours

 ConditionsComfort  
Time TempWeatherWind HumidityBarometerVisibility
5:30 PM
Tue, Jun 30
93 °FBroken clouds.12 mph49%29.56 "HgN/A
5:00 PM95 °FScattered clouds.14 mph44%29.56 "HgN/A
4:30 PM95 °FScattered clouds.12 mph47%29.59 "HgN/A
4:00 PM95 °FPartly sunny.14 mph47%29.59 "HgN/A
3:30 PM93 °FPartly sunny.12 mph49%29.59 "HgN/A
3:00 PM93 °FPartly sunny.15 mph53%29.59 "HgN/A
2:30 PM93 °FPartly sunny.14 mph53%29.59 "HgN/A
2:00 PM95 °FScattered clouds.15 mph50%29.59 "HgN/A
1:30 PM95 °FPartly sunny.16 mph50%29.62 "HgN/A
1:00 PM95 °FScattered clouds.16 mph50%29.62 "HgN/A
12:30 PM93 °FPartly sunny.16 mph53%29.65 "HgN/A
11:30 AM93 °FBroken clouds.15 mph49%29.65 "HgN/A
11:00 AM95 °FBroken clouds.14 mph47%29.68 "HgN/A
10:30 AM91 °FPartly sunny.13 mph52%29.68 "HgN/A
10:00 AM91 °FPartly sunny.14 mph56%29.68 "HgN/A
9:30 AM91 °FPartly sunny.12 mph52%29.68 "HgN/A
9:00 AM91 °FBroken clouds.12 mph49%29.68 "HgN/A
8:30 AM91 °FPartly sunny.13 mph52%29.68 "HgN/A
8:00 AM90 °FPartly sunny.12 mph52%29.68 "HgN/A
7:30 AM88 °FPartly sunny.12 mph55%29.68 "HgN/A
7:00 AM86 °FPartly sunny.7 mph62%29.68 "HgN/A
6:53 AM86 °FPartly sunny.7 mph59%29.68 "HgN/A
6:30 AM86 °FPartly sunny.5 mph62%29.68 "HgN/A
6:00 AM84 °FBroken clouds.6 mph66%29.68 "HgN/A
5:00 AM82 °FPartly cloudy.3 mph70%29.68 "HgN/A
4:00 AM82 °FPassing clouds.2 mph74%29.68 "HgN/A
3:00 AM84 °FPassing clouds.6 mph70%29.68 "HgN/A
2:00 AM84 °FPassing clouds.2 mph70%29.68 "HgN/A
1:00 AM84 °FPassing clouds.5 mph70%29.71 "HgN/A
12:00 AM86 °FPassing clouds.2 mph70%29.71 "HgN/A
11:30 PM
Mon, Jun 29
84 °FPassing clouds.2 mph74%29.71 "HgN/A
11:00 PM86 °FPassing clouds.No wind70%29.71 "HgN/A
10:30 PM88 °FPassing clouds.1 mph66%29.71 "HgN/A
10:00 PM88 °FPassing clouds.1 mph66%29.71 "HgN/A
9:30 PM86 °FPassing clouds.3 mph70%29.71 "HgN/A
9:00 PM86 °FPassing clouds.6 mph70%29.71 "HgN/A
8:30 PM90 °FPassing clouds.6 mph63%29.71 "HgN/A
8:00 PM90 °FPassing clouds.6 mph63%29.71 "HgN/A
7:30 PM91 °FPassing clouds.8 mph52%29.68 "HgN/A
7:02 PM91 °FPassing clouds.9 mph52%29.68 "HgN/A
6:30 PM91 °FPartly sunny.10 mph52%29.68 "HgN/A
6:00 PM93 °FPartly sunny.13 mph49%29.65 "HgN/A
Weather by CustomWeather, © 2015

See weather overviewHow to use our weather pages